Weather WX

World > North America > United States > Mississippi

Poplar Corners, Mississippi Regional Weather

Lat: 34.96N, Lon: 90.12W
Wx Zone: MSZ001
Warning FLW WEATHER ALERT - SEVERE THUNDERSTORM WATCH (More Info. Click Here) Warning
Feedback

Poplar Corners, MS Regional Weather

Expires:201906200500;;765812
ASUS44 KJAN 200410
RWRMS 

MISSISSIPPI HOURLY WEATHER ROUNDUP
NATIONAL WEATHER SERVICE JACKSON MS
1100 PM CDT WED JUN 19 2019

NOTE: "FAIR: INDICATES FEW OR NO CLOUDS BELOW 12,000 FEET WITH NO
SIGNIFICANT WEATHER AND/OR OBSTRUCTIONS TO VISIBILITY.


MSZ001>002-007>008-010>013-018>021-025>028-034>036-200500-
NORTHWEST MISSISSIPPI
  
CITY           SKY/WX    TMP DP  RH WIND       PRES   REMARKS
BATESVILLE     MOCLDY    82  72  69 SW8G14    29.74R                  
CLARKSDALE     MOCLDY    77  77 100 SW14G21   29.73R                  
GREENWOOD      CLOUDY    81  72  74 SW9       29.78R                  
GREENVILLE     TSTM      70  67  90 W16G26    29.83R FOG              
OLIVE BRANCH     N/A     77  77 100 S8        29.70S                  
OXFORD         MOCLDY    79  72  78 VRB7      29.76R                  
TUNICA         LGT RAIN  82  70  65 SW18      29.73R                  
WINONA         CLOUDY    78  73  82 SW3       29.79R                  
$$


SKY/WX - Weather  TMP - Temperature  DP - Dew Point  RH - Relative Humidity
WIND - Wind Direction/Speed PRES - Barometric Pressure VSB - Visibility
WCI - Wind Chill Index E13G22 Wind - East Wind 13 mph/Gusts of 22 mph